[[{"header":{"parameterUnit":"m.s-1","parameterCategory":1,"la1":30.2991,"la2":30.254,"lo1":-89.0895,"lo2":-89.0444,"dy":0.0017,"dx":0.0017,"nx":28,"ny":28,"refTime":"2023-10-01T09:00:00:Z","depth":0,"parameterNumber":2,"parameterNumberName":"U-component_of_WINDS"},"data":[0,0,0,0,0,0,0,0,0,0,0,0,0,0,0,0,0,0,0,0,0,0,0,0,0,0,0,0,0,0,0,0,0,0,0,0,0,0,0,0,0,0,0,0,0,0,0,0,0,0,0,0,0,0,0,0,0,0,-5.2985,-5.2986,0,-5.3036,-5.3037,-5.3037,-5.2856,-5.285,-5.2845,-5.284,-5.2894,-5.29,-5.2906,0,0,0,0,0,0,0,0,0,0,0,0,0,-5.2731,-5.2737,-5.2985,-5.2986,-5.2986,-5.3036,-5.3037,-5.3037,-5.2856,-5.285,-5.2843,-5.2837,-5.2891,-5.2899,-5.2907,0,0,0,0,0,0,0,0,0,0,0,0,0,-5.2818,-5.2739,-5.2985,-5.2902,-5.2895,-5.3036,-5.3037,-5.3038,-5.2858,-5.285,-5.2842,-5.2834,-5.2889,-5.2898,-5.2908,-5.3132,0,0,-5.2938,-5.2942,0,0,0,0,0,0,0,0,-5.2813,-5.2828,-5.2914,-5.2908,-5.2901,-5.2931,-5.2967,-5.3069,-5.286,-5.2872,-5.2839,-5.283,-5.2913,-5.292,-5.2948,-5.3134,-5.3136,-5.2939,-5.2945,-5.2949,-5.2952,0,0,0,0,0,0,0,-5.2808,-5.2824,-5.3005,-5.2915,-5.2907,-5.2862,-5.2866,-5.2985,-5.2938,-5.287,-5.2857,-5.2866,-5.2908,-5.2939,-5.2947,-5.3137,-5.2938,-5.2947,-5.2953,-5.2957,-5.3508,-5.3517,0,0,0,0,0,0,-5.2812,-5.2821,-5.3004,-5.3007,-5.2836,-5.2874,-5.2877,-5.293,-5.2936,-5.2929,-5.2873,-5.2857,-5.2926,-5.2936,-5.2949,-5.321,-5.2949,-5.2958,-5.2963,-5.35,-5.351,-5.352,0,0,0,0,0,0,-5.2808,-5.283,-5.3001,-5.291,-5.2928,-5.2887,-5.2947,-5.2935,-5.2965,-5.2937,-5.2928,-5.2913,-5.292,-5.2935,-5.3087,-5.321,-5.2962,-5.2971,-5.3489,-5.3503,-5.3515,-5.3736,0,0,0,0,0,0,-5.2801,-5.283,-5.2915,-5.2913,-5.2934,-5.314,-5.2954,-5.2942,-5.2983,-5.2963,-5.2973,-5.2967,-5.2915,-5.3073,-5.3097,-5.3219,-5.2979,-5.3478,-5.3495,-5.3511,-5.3718,-5.3755,-5.3787,0,0,0,0,0,-5.2793,-5.2975,-5.292,-5.2943,-5.3039,-5.3147,-5.3159,-5.3095,-5.2993,-5.3078,-5.306,-5.2967,-5.3192,-5.3091,-5.3115,-5.3242,-5.347,-5.349,-5.351,-5.3702,-5.3748,-5.3786,0,0,0,0,0,0,-5.2993,-5.2974,-5.2912,-5.31,-5.3126,-5.3116,-5.3221,-5.3145,-5.3202,-5.3181,-5.3099,-5.3103,-5.327,-5.327,-5.3158,-5.3458,-5.3314,-5.3339,-5.3452,-5.3495,-5.3529,-5.3526,-5.2987,0,0,0,0,0,-5.3059,-5.3148,-5.3126,-5.3294,-5.331,-5.3264,-5.3309,-5.3257,-5.3281,-5.3292,-5.3285,-5.3313,-5.3389,-5.3442,-5.3511,-5.3716,-5.3716,-5.3816,-5.385,-5.3879,-5.3903,-5.4011,-5.4055,-5.3585,-5.3585,-5.3584,0,0,-5.3196,-5.3196,-5.3258,-5.3334,-5.3349,-5.3443,-5.3275,-5.3382,-5.3451,-5.3308,-5.3451,-5.3447,-5.3472,-5.3652,-5.3731,-5.3658,-5.4032,-5.3904,-5.3928,-5.3935,-5.4035,-5.408,-5.412,-5.3598,-5.3596,-5.3594,0,0,-5.3494,-5.3504,-5.3644,-5.3662,-5.3685,-5.3653,-5.3687,-5.3688,-5.368,-5.3822,-5.3716,-5.3797,-5.3932,-5.3954,-5.3983,-5.4289,-5.4205,-5.4313,-5.4496,-5.4602,-5.4639,-5.4671,-5.478,-5.482,-5.4337,-5.4337,-5.4338,0,-5.3662,-5.38,-5.3726,-5.384,-5.3876,-5.375,-5.3892,-5.3912,-5.3959,-5.3987,-5.3904,-5.4069,-5.4078,-5.426,-5.4335,-5.4362,-5.4398,-5.4312,-5.4639,-5.4671,-5.47,-5.4803,-5.4845,-5.435,-5.4349,-5.4347,-5.4346,0,-5.4004,-5.4101,-5.4212,-5.4258,-5.4307,-5.4435,-5.438,-5.4438,-5.4382,-5.4358,-5.4504,-5.4509,-5.4577,-5.4616,-5.4563,-5.4792,-5.4746,-5.4653,-5.4507,-5.476,-5.4855,-5.4894,-5.4369,-5.4364,-5.436,-5.4357,0,0,-5.4432,-5.4434,-5.4476,-5.4495,-5.4512,-5.4585,-5.4707,-5.4772,-5.4824,-5.4859,-5.4959,-5.5075,-5.4988,-5.5021,-5.4969,-5.5062,-5.5304,-5.4957,-5.4956,-5.5022,-5.5556,-5.5626,-5.5673,-5.5248,-5.5255,-5.5261,-5.5554,0,-5.4724,-5.4931,-5.4868,-5.5077,-5.5165,-5.5046,-5.5151,-5.5173,-5.5154,-5.5226,-5.5205,-5.5289,-5.5168,-5.5187,-5.5274,-5.5256,-5.541,-5.5234,-5.534,-5.5345,-5.5338,-5.5723,-5.5798,-5.6074,-5.5591,-5.5597,-5.5601,0,-5.5094,-5.5143,-5.5361,-5.5361,-5.5396,-5.5492,-5.5546,-5.5617,-5.5639,-5.5618,-5.5655,-5.5583,-5.5701,-5.5554,-5.5717,-5.5598,-5.5638,-5.5635,-5.5644,-5.5652,-5.5489,-5.5742,-5.6161,-5.6203,-5.5659,-5.5655,-5.5651,0,-5.5384,-5.5504,-5.565,-5.567,-5.5674,-5.5744,-5.5749,-5.5763,-5.5806,-5.5854,-5.588,-5.5942,-5.5976,-5.6025,-5.5971,-5.5869,-5.6142,-5.599,-5.6129,-5.6131,-5.6192,-5.6189,-5.6624,-5.6218,-5.6217,-5.6216,-5.6216,0,-5.5718,-5.5856,-5.578,-5.587,-5.602,-5.5946,-5.6097,-5.6088,-5.6101,-5.6187,-5.6088,-5.6171,-5.6094,-5.617,-5.6129,-5.627,-5.6286,-5.6273,-5.626,-5.6282,-5.6284,-5.6307,-5.6287,-5.6227,-5.6225,-5.6223,-5.6221,0,-5.6067,-5.6022,-5.6172,-5.6164,-5.6165,-5.6276,-5.6268,-5.6351,-5.6324,-5.6434,-5.6456,-5.6414,-5.6498,-5.6449,-5.6535,-5.6507,-5.6691,-5.6652,-5.6684,-5.6673,-5.6814,-5.6802,-5.728,-5.7339,-5.6895,-5.6899,-5.6903,0,-5.6283,-5.6386,-5.6388,-5.6438,-5.645,-5.6532,-5.6575,-5.6505,-5.6554,-5.6586,-5.6665,-5.674,-5.6797,-5.6937,-5.6915,-5.698,-5.6942,-5.7105,-5.6951,-5.697,-5.6945,-5.6939,-5.6949,-5.7136,-5.7142,-5.7146,-5.7149,0,-5.6672,-5.6644,-5.671,-5.6768,-5.6822,-5.6865,-5.6899,-5.6946,-5.6876,-5.6937,-5.7021,-5.7065,-5.7152,-5.7228,-5.7283,-5.7288,-5.7209,-5.7198,-5.7233,-5.7257,-5.7271,-5.7265,-5.6768,-5.7187,-5.7183,-5.7181,-5.7179,-5.7177,-5.6961,-5.7047,-5.7061,-5.7138,-5.7156,-5.719,-5.7267,-5.7249,-5.7318,-5.7383,-5.7338,-5.7438,-5.7456,-5.7522,-5.7537,-5.7614,-5.7548,-5.76,-5.7613,-5.7627,-5.7646,-5.7258,-5.7624,-5.7623,-5.7622,-5.7621,-5.762,0,-5.7344,-5.7348,-5.7418,-5.7469,-5.7529,-5.7447,-5.7481,-5.7537,-5.7625,-5.7649,-5.7706,-5.7803,-5.7876,-5.7859,-5.7925,-5.799,-5.7955,-5.801,-5.8004,-5.8007,-5.7701,-5.7664,-5.8037,-5.8037,-5.8037,-5.8037,-5.8037,-5.8036,-5.7551,-5.7691,-5.7666,-5.7814,-5.7815,-5.7912,-5.7938,-5.7969,-5.7987,-5.8099,-5.8159,-5.8147,-5.8155,-5.822,-5.8283,-5.8276,-5.8305,-5.8374,-5.8354,-5.8069,-5.8028,-5.7989,-5.7953,-5.8381,-5.8381,-5.8653,-5.8655,-5.8657]},{"header":{"parameterUnit":"m.s-1","parameterCategory":1,"la1":30.2991,"la2":30.254,"lo1":-89.0895,"lo2":-89.0444,"dy":0.0017,"dx":0.0017,"nx":28,"ny":28,"refTime":"2023-10-01T09:00:00:Z","depth":0,"parameterNumber":3,"parameterNumberName":"V-component_of_WINDS"},"data":[0,0,0,0,0,0,0,0,0,0,0,0,0,0,0,0,0,0,0,0,0,0,0,0,0,0,0,0,0,0,0,0,0,0,0,0,0,0,0,0,0,0,0,0,0,0,0,0,0,0,0,0,0,0,0,0,0,0,-3.0816,-3.0817,0,-3.0838,-3.0839,-3.0839,-3.0822,-3.0821,-3.082,-3.082,-3.0841,-3.0842,-3.0844,0,0,0,0,0,0,0,0,0,0,0,0,0,-3.0757,-3.0758,-3.0816,-3.0817,-3.0817,-3.0838,-3.0839,-3.0839,-3.0822,-3.0821,-3.082,-3.0819,-3.0841,-3.0842,-3.0844,0,0,0,0,0,0,0,0,0,0,0,0,0,-3.0781,-3.0758,-3.0816,-3.0811,-3.0811,-3.0838,-3.0839,-3.0839,-3.0822,-3.0821,-3.082,-3.0819,-3.084,-3.0842,-3.0844,-3.0877,0,0,-3.085,-3.085,0,0,0,0,0,0,0,0,-3.078,-3.0783,-3.0812,-3.0811,-3.0811,-3.0826,-3.0825,-3.0852,-3.0822,-3.0818,-3.082,-3.0818,-3.0837,-3.0839,-3.0846,-3.0878,-3.0879,-3.085,-3.0851,-3.0852,-3.0852,0,0,0,0,0,0,0,-3.0778,-3.0782,-3.0825,-3.0812,-3.0812,-3.0807,-3.0809,-3.083,-3.0833,-3.0818,-3.0817,-3.082,-3.0837,-3.0844,-3.0846,-3.088,-3.085,-3.0851,-3.0853,-3.0853,-3.0938,-3.0939,0,0,0,0,0,0,-3.0777,-3.0781,-3.0824,-3.0826,-3.0792,-3.0809,-3.0811,-3.0822,-3.0833,-3.0834,-3.0821,-3.0819,-3.0841,-3.0844,-3.0847,-3.0884,-3.0852,-3.0853,-3.0855,-3.0937,-3.0938,-3.0939,0,0,0,0,0,0,-3.0776,-3.0781,-3.0823,-3.0803,-3.0808,-3.0811,-3.0824,-3.0824,-3.0831,-3.0835,-3.0835,-3.0828,-3.084,-3.0844,-3.0869,-3.0885,-3.0854,-3.0856,-3.0935,-3.0937,-3.0939,-3.0962,0,0,0,0,0,0,-3.0774,-3.0781,-3.0795,-3.0803,-3.0809,-3.0847,-3.0825,-3.0825,-3.0834,-3.0832,-3.0841,-3.0842,-3.084,-3.0867,-3.0871,-3.0887,-3.0858,-3.0934,-3.0936,-3.0938,-3.0959,-3.0964,-3.0968,0,0,0,0,0,-3.0772,-3.0801,-3.0795,-3.0801,-3.0826,-3.0848,-3.0851,-3.0848,-3.0835,-3.0848,-3.0851,-3.0842,-3.0883,-3.0869,-3.0874,-3.0891,-3.0933,-3.0936,-3.0938,-3.0957,-3.0963,-3.0967,0,0,0,0,0,0,-3.0794,-3.0802,-3.0796,-3.0828,-3.0837,-3.0845,-3.0861,-3.0854,-3.0867,-3.0864,-3.086,-3.0862,-3.0888,-3.0892,-3.0877,-3.0922,-3.0906,-3.0909,-3.0919,-3.0924,-3.0928,-3.0926,-3.0859,0,0,0,0,0,-3.0802,-3.0819,-3.0825,-3.0853,-3.0858,-3.0859,-3.0868,-3.0865,-3.0874,-3.0878,-3.0882,-3.0891,-3.0905,-3.0915,-3.0929,-3.096,-3.0961,-3.0974,-3.0978,-3.0981,-3.0984,-3.0998,-3.1003,-3.0948,-3.0948,-3.0948,0,0,-3.082,-3.0826,-3.0838,-3.0857,-3.0864,-3.0881,-3.0862,-3.0881,-3.0893,-3.088,-3.0904,-3.0907,-3.0917,-3.0944,-3.0957,-3.0948,-3.1,-3.0984,-3.0987,-3.0988,-3.1001,-3.1007,-3.1011,-3.0949,-3.0949,-3.0949,0,0,-3.086,-3.0868,-3.089,-3.0897,-3.0907,-3.0907,-3.0912,-3.092,-3.0922,-3.0946,-3.0936,-3.0949,-3.0975,-3.0982,-3.0988,-3.1028,-3.102,-3.1033,-3.1054,-3.1068,-3.1072,-3.1076,-3.1088,-3.1093,-3.1036,-3.1036,-3.1036,0,-3.0881,-3.0906,-3.0903,-3.0922,-3.093,-3.0919,-3.094,-3.0947,-3.0961,-3.0966,-3.0957,-3.0987,-3.0993,-3.1021,-3.103,-3.1037,-3.1041,-3.1031,-3.1072,-3.1076,-3.1079,-3.1091,-3.1096,-3.1037,-3.1037,-3.1037,-3.1037,0,-3.0929,-3.0947,-3.0964,-3.0977,-3.0987,-3.1007,-3.1006,-3.1016,-3.1012,-3.1012,-3.1035,-3.1041,-3.1055,-3.1062,-3.1058,-3.1088,-3.1082,-3.1073,-3.1056,-3.1086,-3.1097,-3.1101,-3.1039,-3.1039,-3.1039,-3.1038,0,0,-3.0985,-3.0994,-3.1,-3.1005,-3.1014,-3.1027,-3.1046,-3.1059,-3.1067,-3.1077,-3.1091,-3.1113,-3.1103,-3.111,-3.1107,-3.1119,-3.1148,-3.1108,-3.1108,-3.1113,-3.1179,-3.1185,-3.1191,-3.1143,-3.1144,-3.1144,-3.1178,0,-3.1024,-3.1057,-3.1053,-3.1084,-3.1099,-3.1088,-3.1104,-3.111,-3.1111,-3.1123,-3.1124,-3.1138,-3.1125,-3.1129,-3.1141,-3.1142,-3.1161,-3.114,-3.1155,-3.1155,-3.1151,-3.1197,-3.1204,-3.1235,-3.1182,-3.1183,-3.1183,0,-3.1074,-3.1084,-3.1117,-3.1121,-3.1127,-3.1142,-3.1152,-3.1164,-3.1171,-3.117,-3.1178,-3.1172,-3.1189,-3.1172,-3.1195,-3.1181,-3.1187,-3.1188,-3.1189,-3.1189,-3.117,-3.1196,-3.1245,-3.1249,-3.119,-3.119,-3.1189,0,-3.1108,-3.1131,-3.1152,-3.1156,-3.1163,-3.1173,-3.1176,-3.1182,-3.1189,-3.1198,-3.1202,-3.1214,-3.1219,-3.1228,-3.1224,-3.1213,-3.1247,-3.1231,-3.1246,-3.1246,-3.1253,-3.1252,-3.1302,-3.1259,-3.1259,-3.1259,-3.1259,0,-3.1152,-3.1171,-3.1167,-3.118,-3.1201,-3.1196,-3.1217,-3.1218,-3.1223,-3.1235,-3.1227,-3.1238,-3.1233,-3.1244,-3.1242,-3.126,-3.1263,-3.1262,-3.1261,-3.1262,-3.1262,-3.1265,-3.1262,-3.126,-3.126,-3.126,-3.126,0,-3.1193,-3.1192,-3.1214,-3.1217,-3.1218,-3.1234,-3.1236,-3.1248,-3.1247,-3.1263,-3.1266,-3.1265,-3.1277,-3.1274,-3.1288,-3.1286,-3.1309,-3.1306,-3.1306,-3.1305,-3.1319,-3.1317,-3.1371,-3.1377,-3.1333,-3.1333,-3.1334,0,-3.122,-3.1235,-3.1239,-3.1247,-3.125,-3.1263,-3.1269,-3.1265,-3.1272,-3.1279,-3.129,-3.1301,-3.131,-3.1329,-3.1329,-3.1339,-3.1335,-3.1354,-3.1337,-3.1337,-3.1333,-3.1332,-3.1332,-3.1357,-3.1357,-3.1358,-3.1358,0,-3.1268,-3.1265,-3.1276,-3.1285,-3.1293,-3.1301,-3.1307,-3.1314,-3.1309,-3.1318,-3.133,-3.1336,-3.1349,-3.136,-3.1369,-3.1371,-3.1363,-3.1363,-3.1367,-3.1367,-3.1366,-3.1365,-3.1313,-3.1362,-3.1361,-3.1361,-3.1361,-3.1361,-3.1301,-3.1313,-3.1317,-3.1328,-3.1332,-3.1338,-3.1348,-3.1348,-3.1358,-3.1368,-3.1364,-3.1378,-3.1382,-3.1393,-3.1396,-3.1406,-3.1399,-3.1405,-3.1406,-3.1407,-3.1408,-3.1366,-3.1407,-3.1407,-3.1407,-3.1407,-3.1407,0,-3.1346,-3.1348,-3.1358,-3.1367,-3.1375,-3.1367,-3.1373,-3.138,-3.1392,-3.1396,-3.1405,-3.1417,-3.1427,-3.1427,-3.1436,-3.1444,-3.144,-3.1446,-3.1445,-3.1445,-3.1414,-3.1409,-3.1449,-3.1449,-3.1449,-3.1449,-3.1449,-3.1449,-3.1371,-3.1389,-3.1387,-3.1406,-3.1407,-3.142,-3.1423,-3.1428,-3.1431,-3.1446,-3.1454,-3.1454,-3.1456,-3.1465,-3.1473,-3.1473,-3.1475,-3.1482,-3.1481,-3.1452,-3.1448,-3.1444,-3.1439,-3.1484,-3.1484,-3.151,-3.1511,-3.1511]}]]